Notices

What's New in latest Release from April 7th, 2021:

- Updated Glossary, including Speed of Maximum Gust, and Total Hourly Precipitation

- Updated national and regional climate services offices contacts and prices information

- Addition of station inventory lists for 1981-2010, 1971-2000, and 1961-1990 Normals.

If you haven't already, please take our survey and provide feedback about our website: https://eccc.sondage-survey.ca/f/LanguageSelection.aspx?s=442ca660-fcf1-47c0-95a9-59707d6fd709

Hourly Data Report for April 03, 2021

ALGONQUIN PARK EAST GATE
ONTARIO
Current Station Operator: ECCC - MSC

45°32'00.000" N
78°16'00.000" W
397.00 m
6080192
71581
TNK

Download Data

Hourly Data (April 2021)
Hourly Data Report for April 3, 2021
TIME
LST
Temp Definition
°C
Dew Point Definition
°C
Rel Hum Definition
%
Precip. Amount Definition
mm

Wind Dir Definition
10's deg

Wind Spd Definition
km/h
Visibility Definition
km
Stn Press Definition
kPa
Hmdx Definition


Wind Chill Definition


Weather Definition


00:00 -9.1 -12.3 78 0.0   0   97.65     LegendNANA
01:00 -9.9 -12.5 81 0.0   0   97.65     LegendNANA
02:00 -10.4 -12.6 84 0.0   0   97.64     LegendNANA
03:00 -10.9 -12.8 86 0.0   0   97.68     LegendNANA
04:00 -11.3 -13.0 87 0.0   0   97.69     LegendNANA
05:00 -11.5 -13.2 87 0.0   0   97.69     LegendNANA
06:00 -11.1 -12.7 88 0.0   0   97.67     LegendNANA
07:00 -8.1 -9.8 87 0.0   0   97.68     LegendNANA
08:00 -2.3 -7.2 69 0.0 23 5   97.60   -4 LegendNANA
09:00 2.0 -11.0 37 0.0 22 7   97.55     LegendNANA
10:00 4.1 -11.3 32 0.0 23 6   97.51     LegendNANA
11:00 5.6 -10.5 30 0.0 24 9   97.42     LegendNANA
12:00 5.9 -11.5 27 0.0 26 10   97.35     LegendNANA
13:00 7.8 -10.9 25 0.0 25 8   97.28     LegendNANA
14:00 7.4 -11.6 25 0.0 25 9   97.23     LegendNANA
15:00 6.3 -12.6 24 0.0 26 7   97.19     LegendNANA
16:00 6.6 -11.9 25 0.0 24 8   97.17     LegendNANA
17:00 6.4 -11.0 28 0.0 24 8   97.16     LegendNANA
18:00 5.0 -8.9 36 0.0 24 4   97.17     LegendNANA
19:00 3.5 -7.6 44 0.0 24 2   97.16     LegendNANA
20:00 0.8 -7.6 53 0.0 27 1   97.18     LegendNANA
21:00 -1.2 -6.9 65 0.0 11 1   97.20   -2 LegendNANA
22:00 -2.4 -6.3 74 0.0   0   97.21     LegendNANA
23:00 -2.4 -6.2 75 0.0   0   97.20     LegendNANA

Notes on Data Quality.

Legend

  • E = Estimated
  • M = Missing
  • NA = Not Available*
  • [empty] = Indicates an unobserved value
Date modified: